Location: Newark
(50.0306°N, 2.3272°E)
Time: 15:50:55
(UTC+00:00)

A-11 Canister half - Pass Details

Date: 09 December 2019
Orbit: 1525 x 1684 km, 47.3° (Epoch: 19 January)

Event Time Altitude Azimuth Distance (km) Brightness Sun altitude
Rises 11:34:40 0° 286° (WNW) 4,935 11.5 17.1°
Reaches altitude 10° 11:37:57 10° 282° (WNW) 3,935 11.1 17.1°
Maximum altitude 11:47:33 52° 210° (SSW) 1,979 10.5 17.1°
Drops below altitude 10° 11:56:52 10° 138° (SE) 3,821 11.9 17.1°
Sets 12:00:01 0° 133° (SE) 4,783 12.2 17.1°
